Weather History for Oxford, CT

Change the Weather History Date:

Wednesday, October 3, 2012

  Actual Average Record
Temperature  
Mean Temperature 65 °F -  
Max Temperature 71 °F 61 °F 77 °F (2001)
Min Temperature 59 °F 42 °F 32 °F (2003)
Growing Degree Days 15 (Base 50)    
Moisture  
Dew Point 61 °F    
Average Humidity 93    
Maximum Humidity 94    
Minimum Humidity 83    
Precipitation  
Precipitation 0.00 in - - ()
Sea Level Pressure  
Sea Level Pressure 30.09 in    
Wind  
Wind Speed 3 mph (ENE)    
Max Wind Speed 6 mph    
Max Gust Speed -    
Visibility 2 miles    
Events Fog    
Averages and records for this station are not official NWS values.
T = Trace of Precipitation, MM = Missing Value Source: NWS Daily Summary

Daily Weather History Graph

Daily Weather History Graph

Search for Another Location

Airport:

Trip Planner

Search our weather history database for the weather conditions in past years. The results will help you decide how hot, cold, wet, or windy it might be!

Date:

Astronomy

Oct. 03, 2012 Rise Set
Actual Time 6:51 AM EDT 6:30 PM EDT
Civil Twilight 6:24 AM EDT 6:57 PM EDT
Nautical Twilight 5:52 AM EDT 7:29 PM EDT
Astronomical Twilight 5:19 AM EDT 8:02 PM EDT
Moon 8:17 PM EDT (10/3) 10:15 AM EDT (10/3)
Length of Visible Light 12h 33m
Length of Day
11h 38m
Waning Gibbous, 89% of the Moon is Illuminated
Oct 3
Waning Gibbous
Oct 8
Last Quarter
Oct 15
New
Oct 21
First Quarter
Oct 29
Full

Hourly Weather History & Observations

Time (EDT) Temp. Dew Point Humidity Pressure Visibility Wind Dir Wind Speed Gust Speed Precip Events Conditions
12:15 AM 59.0 °F 57.2 °F 94% 30.04 in 0.5 mi NE 3.5 mph - N/A   Overcast
12:35 AM 59.0 °F 57.2 °F 94% 30.04 in 0.5 mi NE 3.5 mph - N/A   Overcast
1:15 AM 59.0 °F 57.2 °F 94% 30.04 in 0.5 mi ENE 5.8 mph - N/A   Overcast
1:35 AM 59.0 °F 57.2 °F 94% 30.04 in 0.5 mi East 3.5 mph - N/A   Overcast
1:55 AM 59.0 °F 57.2 °F 94% 30.04 in 0.5 mi NE 3.5 mph - N/A   Overcast
2:15 AM 59.0 °F 57.2 °F 94% 30.04 in 0.5 mi Calm Calm - N/A   Overcast
2:35 AM 59.0 °F 57.2 °F 94% 30.04 in 0.5 mi NE 3.5 mph - N/A   Overcast
2:55 AM 59.0 °F 57.2 °F 94% 30.03 in 0.2 mi NNE 5.8 mph - N/A   Overcast
3:15 AM 59.0 °F 57.2 °F 94% 30.03 in 0.2 mi ENE 4.6 mph - N/A   Overcast
3:55 AM 59.0 °F 57.2 °F 94% 30.04 in 0.5 mi NNE 4.6 mph - N/A   Overcast
4:15 AM 59.0 °F 57.2 °F 94% 30.05 in 0.5 mi NNE 4.6 mph - N/A   Overcast
4:35 AM 59.0 °F 57.2 °F 94% 30.04 in 0.8 mi NE 4.6 mph - N/A   Overcast
4:55 AM 59.0 °F 57.2 °F 94% 30.05 in 1.5 mi NE 3.5 mph - N/A   Overcast
5:15 AM 59.0 °F 57.2 °F 94% 30.05 in 2.0 mi ENE 3.5 mph - N/A   Overcast
5:35 AM 59.0 °F 57.2 °F 94% 30.06 in 1.8 mi ENE 3.5 mph - N/A   Overcast
5:45 AM 59.0 °F 57.2 °F 94% 30.06 in 1.0 mi NE 5.8 mph - N/A   Overcast
6:45 AM 59.0 °F 57.2 °F 94% 30.07 in 0.8 mi ENE 4.6 mph - N/A   Overcast
7:17 AM 59.0 °F 57.2 °F 94% 30.09 in 0.2 mi North 3.5 mph - N/A Fog Fog
7:45 AM 60.8 °F 57.2 °F 88% 30.10 in 0.1 mi Calm Calm - N/A Fog Fog
8:45 AM 60.8 °F 57.2 °F 88% 30.10 in 0.6 mi Calm Calm - N/A Fog Fog
9:02 AM 60.8 °F 59.0 °F 94% 30.10 in 1.0 mi Calm Calm - N/A   Overcast
9:45 AM 62.6 °F 60.8 °F 94% 30.10 in 1.0 mi ENE 5.8 mph - N/A   Overcast
10:03 AM 62.6 °F 60.8 °F 94% 30.11 in 0.2 mi NE 5.8 mph - N/A Fog Fog
10:34 AM 62.6 °F 60.8 °F 94% 30.12 in 1.0 mi Calm Calm - N/A   Overcast
11:45 AM 64.4 °F 62.6 °F 94% 30.10 in 2.0 mi East 3.5 mph - N/A   Overcast
12:45 PM 66.2 °F 64.4 °F 94% 30.09 in 6.0 mi ESE 4.6 mph - N/A   Overcast
1:45 PM 71.6 °F 66.2 °F 83% 30.08 in 10.0 mi ESE 5.8 mph - N/A   Overcast
2:45 PM 69.8 °F 66.2 °F 88% 30.09 in 10.0 mi South 3.5 mph - N/A   Overcast
3:45 PM 69.8 °F 66.2 °F 88% 30.09 in 10.0 mi SSE 3.5 mph - N/A   Overcast
4:45 PM 68.0 °F 64.4 °F 88% 30.10 in 2.0 mi South 3.5 mph - N/A   Overcast
5:45 PM 66.2 °F 64.4 °F 94% 30.11 in 1.0 mi Calm Calm - N/A   Overcast
6:45 PM 66.2 °F 64.4 °F 94% 30.12 in 0.5 mi Calm Calm - N/A   Overcast
7:45 PM 66.2 °F 64.4 °F 94% 30.13 in 0.5 mi Calm Calm - N/A Fog Fog
8:45 PM 66.2 °F 64.4 °F 94% 30.14 in 0.2 mi Calm Calm - N/A Fog Fog
9:15 PM 66.2 °F 64.4 °F 94% 30.14 in 0.2 mi ESE 4.6 mph - N/A   Overcast
9:35 PM 66.2 °F 64.4 °F 94% 30.15 in 0.2 mi Calm Calm - N/A   Overcast
9:55 PM 66.2 °F 64.4 °F 94% 30.15 in 0.5 mi Calm Calm - N/A   Overcast
10:15 PM 66.2 °F 64.4 °F 94% 30.14 in 0.2 mi East 4.6 mph - N/A   Overcast
10:35 PM 66.2 °F 64.4 °F 94% 30.15 in 0.5 mi SE 4.6 mph - N/A   Overcast
11:15 PM 66.2 °F 64.4 °F 94% 30.15 in 0.5 mi Calm Calm - N/A   Overcast
11:35 PM 66.2 °F 64.4 °F 94% 30.15 in 0.5 mi Calm Calm - N/A   Overcast
11:55 PM 66.2 °F 64.4 °F 94% 30.15 in 0.2 mi Calm Calm - N/A   Overcast